[Iaude] MPEC H30: 2024 HL [a=1.84,e=0.65,i=7.7,H=26.5]

mpec at cfa.harvard.edu mpec at cfa.harvard.edu
Thu Apr 18 16:32:51 EDT 2024


M.P.E.C. 2024-H30                                Issued 2024 April 18, 20:31 UT

     The Minor Planet Electronic Circulars contain information on unusual
         minor planets, routine data on comets and natural satellites,
         and occasional editorial announcements.  They are published
    on behalf of Division F of the International Astronomical Union by the
          Minor Planet Center, Smithsonian Astrophysical Observatory,
                          Cambridge, MA 02138, U.S.A.
			  
             Prepared using the Tamkin Foundation Computer Network

                              MPC at CFA.HARVARD.EDU
            URL https://www.minorplanetcenter.net/    ISSN 1523-6714

                                    2024 HL                                     


Observations:
     K24H00L* C2024 04 16.50815513 17 37.804-14 03 43.92         20.23wXEH030F52
     K24H00L  C2024 04 16.52058113 17 27.705-14 06 25.86         20.36wXEH030F52
     K24H00L  C2024 04 16.53306613 17 17.586-14 09 08.83         20.37wXEH030F52
     K24H00L KC2024 04 17.22180713 06 58.604-17 15 26.60         19.81GVEH030I52
     K24H00L KC2024 04 17.22439713 06 55.469-17 16 17.62         19.92GVEH030I52
     K24H00L  C2024 04 17.38144613 03 43.825-18 09 32.59         19.68GVEH030F52
     K24H00L  C2024 04 17.38209713 03 42.925-18 09 46.69         19.39GVEH030F52
     K24H00L 0B2024 04 17.83285 12 52 27.144-21 14 26.45         19.4 VZEH030M49
     K24H00L 0B2024 04 17.84990 12 51 54.120-21 22 49.48         19.6 VZEH030M49
     K24H00L KB2024 04 17.90548612 50 07.20 -21 55 44.7          19.4 GXEH030958
     K24H00L KB2024 04 17.91079012 49 56.43 -21 58 27.2          19.3 GXEH030958
     K24H00L KC2024 04 17.95303912 48 28.37 -22 20 34.5                XEH030I93
     K24H00L KB2024 04 17.96929012 47 54.19 -22 29 09.8          19.5 GXEH030958
     K24H00L KB2024 04 17.97351512 47 45.06 -22 31 25.3          19.4 GXEH030958
     K24H00L KB2024 04 17.97759212 47 36.17 -22 33 37.3          19.7 GXEH030958
     K24H00L KC2024 04 17.98938112 47 10.23 -22 40 00.0          19.3 GXEH030I93
     K24H00L KC2024 04 18.00127512 46 44.18 -22 46 27.0          19.6 GXEH030I93
     K24H00L hC2024 04 18.01794712 46 08.258-22 55 50.30         19.2 GVEH030J95
     K24H00L hC2024 04 18.02139812 46 00.576-22 57 43.85         19.5 GVEH030J95
     K24H00L |C2024 04 18.11925012 42 32.490-23 47 40.40         18.9 GVEH030807
     K24H00L |C2024 04 18.12196012 42 25.750-23 49 17.20         19.0 GVEH030807
     K24H00L |C2024 04 18.12472012 42 18.940-23 50 56.30         19.1 GVEH030807
     K24H00L |C2024 04 18.12734012 42 12.410-23 52 30.50         19.2 GVEH030807
     K24H00L KC2024 04 18.20138112 39 14.70 -24 43 47.9          19.1 GXEH030858
     K24H00L KC2024 04 18.20544912 39 03.85 -24 46 23.6          19.0 GXEH030858
     K24H00L KC2024 04 18.20927112 38 53.62 -24 48 50.5          19.4 GXEH030858

Observer details:
807 Cerro Tololo Observatory, La Serena.  Observers T. Linder, R. Holmes.
    0.61-m f/6.8 Ritchey-Chretien + CCD.
858 Tebbutt Observatory, Edgewood.  Observer F. B. Zoltowski.  0.51-m f/8.1
    Schmidt-Cassegrain + CCD.
958 Observatoire de Dax.  Observer P. Dupouy.  0.50-m f/4.5 Reflector + CMO.
F52 Pan-STARRS 2, Haleakala.  Observers J. Herman, T. Lowe, P. Minguez, A.
    Schultz, I. Smith.  Measurers K. Chambers, T. de Boer, J. Fairlamb, H.
    Gao, M. Huber, C.-C. Lin, E. Magnier, Y. Ramanjooloo, R. Wainscoat, R.
    Weryk.  1.8-m Ritchey-Chretien + CCD.
I52 Steward Observatory, Mt. Lemmon Station.  Observer J. B. Fazekas.
    Measurers T. Beuden, V. F. Carvajal, D. Fay, J. B. Fazekas, D. C. Fuls, A.
    R. Gibbs, A. D. Grauer, H. Groeller, J. K. Hogan, R. A. Kowalski, S. M.
    Larson, G. J. Leonard, D. Rankin, R. L. Seaman, F. C. Shelly, K. W.
    Wierzchos.  1.0-m prime focus + CCD.
I93 St Pardon de Conques.  Observer F. Losse.  0.40-m f/3.7 reflector + CCD.
J95 Great Shefford.  Observer P. Birtwhistle.  0.41-m f/6.3 Schmidt-Cassegrain
    + CCD.
M49 IAS Remote Observatory, Hakos.  Observers D. Husar, M. Junius.  Measurer
    D. Husar.  0.25-m f/4.5 reflector + CMO.

Orbital elements:
2024 HL                                                  Earth MOID = 0.0110 AU
Epoch 2024 Mar. 31.0 TT = JDT 2460400.5                 Veres                   
M 333.02155              (2000.0)            P               Q                  
n   0.39419245     Peri.  270.51501     +0.42615479     +0.90290583             
a   1.8421734      Node    24.94680     -0.76800809     +0.39389150             
e   0.6525538      Incl.    7.65076     -0.47807496     +0.17207716             
P   2.50           H   26.57          G   0.15           U   7                  
Residuals in seconds of arc
240416 F52  0.3+  0.0     240417 958  0.4+  0.3-    240418 J95  0.1+  0.3-
240416 F52  0.2-  0.3-    240417 958  0.3+  1.1+    240418 807  0.2-  0.2-
240416 F52  0.1+  0.1-    240417 I93  0.8-  0.2+    240418 807  0.5-  0.1+
240417 I52 (1.3-  1.4-)   240417 958  2.3+  1.1+    240418 807  0.3+  0.1+
240417 I52 (0.7-  1.3-)   240417 958  1.8+  1.2+    240418 807  0.3+  0.1+
240417 F52  0.0   0.1+    240417 958  0.7+  0.3+    240418 858  0.0   0.5+
240417 F52  0.0   0.1+    240417 I93  0.6-  0.4+    240418 858  0.1+  0.5+
240417 M49  0.4-  0.7-    240418 I93  0.2+  0.4+    240418 858  0.3+  0.3+
240417 M49  0.4-  0.3-    240418 J95  0.1+  0.8-

Ephemeris:
2024 HL                  a,e,i = 1.84, 0.65, 8                   q = 0.6401
Date    TT    R. A. (2000) Decl.     Delta      r    Elong.  Phase     V
2024 03 19    13 50 43.8 -02 14 26   0.3901  1.3497   150.9    21.1    26.2
...
2024 04 03    13 51 24.1 -03 24 56   0.1979  1.1916   164.4    13.0    24.2
...
2024 04 11    13 44 14.5 -05 51 37   0.1035  1.1050   173.2     6.2    22.3
...
2024 04 17    13 10 48.1 -16 04 26   0.03617 1.0395   170.8     8.9    20.0
2024 04 18    12 46 53.0 -22 40 09   0.02580 1.0286   161.8    17.7    19.6
2024 04 19    11 44 55.9 -36 05 31   0.01675 1.0177   142.6    36.8    19.2
...
2024 04 25    02 31 12.2 -09 12 04   0.05818 0.9526    22.9   155.7    30.0
...
2024 05 03    02 12 41.3 -02 51 28   0.1502  0.8682    19.8   156.8    32.1
...
2024 05 18    02 11 32.8 +01 09 55   0.3420  0.7288    28.3   138.8    30.2

M. P. C. Staff               (C) Copyright 2024 MPC           M.P.E.C. 2024-H30





More information about the Iaude mailing list